Change the Weather History Date:

Saturday, January 18, 2014

  Actual Average Record
Temperature  
Mean Temperature 5 °F -  
Max Temperature 17 °F 22 °F 36 °F (2015)
Min Temperature -7 °F 2 °F -7 °F (2014)
Degree Days  
Heating Degree Days 60    
Moisture  
Dew Point 1 °F    
Average Humidity 84    
Maximum Humidity 92    
Minimum Humidity 68    
Precipitation  
Precipitation 0.00 in - - ()
Sea Level Pressure  
Sea Level Pressure 29.83 in    
Wind  
Wind Speed 1 mph (WNW)    
Max Wind Speed 10 mph    
Max Gust Speed 18 mph    
Visibility 10 miles    
Events      
Averages and records for this station are not official NWS values.
T = Trace of Precipitation, MM = Missing Value Source: NWS Daily Summary

Daily Weather History Graph

Daily Weather History Graph

Search for Another Location

Airport or City:

Trip Planner

Search our weather history database for the weather conditions in past years. The results will help you decide how hot, cold, wet, or windy it might be!

Date:

Astronomy

Jan. 18, 2014 Rise Set
Actual Time 7:24 AM CST 4:40 PM CST
Civil Twilight 6:51 AM CST 5:13 PM CST
Nautical Twilight 6:15 AM CST 5:49 PM CST
Astronomical Twilight 5:40 AM CST 6:24 PM CST
Moon 7:31 PM CST (1/18) 8:15 AM CST (1/18)
Length of Visible Light 10h 21m
Length of Day
9h 16m
Waning Gibbous, 94% of the Moon is Illuminated
Jan 18
Waning Gibbous
Jan 23
Last Quarter
Jan 30
New
Feb 6
First Quarter
Feb 14
Full

Hourly Weather History & Observations

Time (CST) Temp. Windchill Dew Point Humidity Pressure Visibility Wind Dir Wind Speed Gust Speed Precip Events Conditions
12:15 AM -3.6 °F - -6.2 °F 89% 29.87 in 10.0 mi Calm Calm - N/A   Clear
12:35 AM -2.0 °F - -4.5 °F 89% 29.86 in 10.0 mi Calm Calm - N/A   Clear
12:55 AM -2.9 °F - -5.8 °F 87% 29.86 in 10.0 mi Calm Calm - N/A   Clear
1:15 AM -5.4 °F - -8.9 °F 85% 29.86 in 10.0 mi Calm Calm - N/A   Clear
1:35 AM -3.1 °F - -6.2 °F 87% 29.86 in 10.0 mi Calm Calm - N/A   Clear
1:55 AM -5.8 °F - -9.4 °F 84% 29.85 in 10.0 mi Calm Calm - N/A   Clear
2:15 AM -4.9 °F - -8.3 °F 85% 29.86 in 10.0 mi Calm Calm - N/A   Clear
2:35 AM -5.1 °F - -8.5 °F 85% 29.86 in 10.0 mi Calm Calm - N/A   Clear
2:55 AM -7.4 °F - -11.2 °F 84% 29.86 in 10.0 mi Calm Calm - N/A   Clear
3:15 AM -6.5 °F - -10.1 °F 84% 29.86 in 10.0 mi Calm Calm - N/A   Scattered Clouds
3:35 AM -6.2 °F - -9.9 °F 84% 29.85 in 10.0 mi Calm Calm - N/A   Overcast
3:55 AM -4.9 °F - -8.3 °F 85% 29.85 in 10.0 mi Calm Calm - N/A   Overcast
4:15 AM -3.1 °F - -6.5 °F 85% 29.84 in 10.0 mi Calm Calm - N/A   Overcast
4:35 AM -2.6 °F - -6.0 °F 85% 29.84 in 10.0 mi Calm Calm - N/A   Overcast
4:55 AM -1.7 °F - -5.1 °F 85% 29.84 in 10.0 mi Calm Calm - N/A   Overcast
5:15 AM -0.9 °F - -4.2 °F 86% 29.84 in 10.0 mi Calm Calm - N/A   Overcast
5:35 AM -0.4 °F - -3.8 °F 85% 29.84 in 10.0 mi Calm Calm - N/A   Overcast
5:55 AM 0.1 °F - -3.1 °F 86% 29.84 in 10.0 mi Calm Calm - N/A   Overcast
6:15 AM 0.5 °F - -2.6 °F 87% 29.84 in 10.0 mi Calm Calm - N/A   Overcast
6:16 AM 1.4 °F - -2.2 °F 85% 29.84 in 10.0 mi Calm Calm - N/A   Overcast
6:35 AM 1.0 °F - -2.2 °F 86% 29.83 in 10.0 mi Calm Calm - N/A   Overcast
6:55 AM 0.3 °F - -2.9 °F 86% 29.82 in 10.0 mi Calm Calm - N/A   Mostly Cloudy
7:15 AM -1.7 °F - -4.9 °F 86% 29.83 in 10.0 mi Calm Calm - N/A   Clear
7:35 AM -1.1 °F - -4.2 °F 87% 29.83 in 10.0 mi Calm Calm - N/A   Mostly Cloudy
7:55 AM -4.5 °F - -8.1 °F 84% 29.84 in 10.0 mi Calm Calm - N/A   Scattered Clouds
8:15 AM -2.6 °F - -5.8 °F 86% 29.84 in 10.0 mi Calm Calm - N/A   Clear
8:35 AM -1.5 °F - -4.9 °F 85% 29.85 in 10.0 mi Calm Calm - N/A   Clear
8:55 AM -0.6 °F - -3.8 °F 86% 29.86 in 10.0 mi Calm Calm - N/A   Scattered Clouds
9:15 AM 0.9 °F - -2.4 °F 86% 29.86 in 10.0 mi Calm Calm - N/A   Mostly Cloudy
9:35 AM 3.4 °F - 0.3 °F 87% 29.86 in 10.0 mi Calm Calm - N/A   Mostly Cloudy
9:55 AM 5.4 °F - 2.7 °F 89% 29.86 in 10.0 mi Calm Calm - N/A   Overcast
10:15 AM 9.0 °F 2.4 °F 6.3 °F 89% 29.86 in 7.0 mi NNE 3.5 mph - N/A   Overcast
10:35 AM 10.4 °F -0.4 °F 7.7 °F 89% 29.86 in 10.0 mi NNE 6.9 mph - N/A   Overcast
10:55 AM 11.1 °F 3.1 °F 7.9 °F 87% 29.86 in 10.0 mi North 4.6 mph - N/A   Overcast
11:15 AM 11.7 °F 2.3 °F 7.7 °F 84% 29.85 in 10.0 mi NNE 5.8 mph - N/A   Overcast
11:35 AM 12.7 °F 5.0 °F 7.0 °F 78% 29.84 in 10.0 mi North 4.6 mph - N/A   Overcast
11:55 AM 13.1 °F 5.4 °F 6.8 °F 76% 29.84 in 10.0 mi North 4.6 mph - N/A   Overcast
12:15 PM 14.0 °F 8.2 °F 7.2 °F 74% 29.84 in 10.0 mi NW 3.5 mph - N/A   Overcast
12:35 PM 14.5 °F - 7.5 °F 74% 29.84 in 10.0 mi Calm Calm - N/A   Overcast
12:55 PM 14.9 °F - 7.5 °F 73% 29.83 in 7.0 mi Calm Calm - N/A   Overcast
1:15 PM 15.4 °F 9.8 °F 7.7 °F 71% 29.83 in 10.0 mi NW 3.5 mph - N/A   Overcast
1:35 PM 15.8 °F 7.2 °F 7.7 °F 70% 29.82 in 10.0 mi NW 5.8 mph - N/A   Overcast
1:55 PM 16.3 °F - 8.6 °F 72% 29.83 in 10.0 mi Calm Calm - N/A   Overcast
2:15 PM 16.9 °F 11.5 °F 9.5 °F 73% 29.82 in 10.0 mi NW 3.5 mph - N/A   Overcast
2:35 PM 16.5 °F 11.0 °F 8.6 °F 71% 29.83 in 10.0 mi NW 3.5 mph - N/A   Overcast
2:55 PM 16.7 °F 9.6 °F 8.6 °F 70% 29.83 in 10.0 mi NW 4.6 mph - N/A   Overcast
3:15 PM 16.7 °F 9.6 °F 8.6 °F 70% 29.84 in 10.0 mi NW 4.6 mph - N/A   Overcast
3:35 PM 17.6 °F 12.3 °F 8.6 °F 68% 29.83 in 10.0 mi NW 3.5 mph - N/A   Overcast
3:55 PM 15.6 °F - 8.2 °F 73% 29.83 in 10.0 mi Calm Calm - N/A   Overcast
4:15 PM 14.7 °F 9.0 °F 8.1 °F 75% 29.84 in 10.0 mi West 3.5 mph - N/A   Scattered Clouds
4:35 PM 12.0 °F 5.9 °F 7.0 °F 80% 29.84 in 10.0 mi West 3.5 mph - N/A   Clear
4:55 PM 9.7 °F - 6.1 °F 85% 29.83 in 10.0 mi Calm Calm - N/A   Clear
5:15 PM 6.3 °F - 4.5 °F 92% 29.84 in 10.0 mi Calm Calm - N/A   Clear
5:35 PM 6.1 °F - 3.7 °F 90% 29.84 in 10.0 mi Calm Calm - N/A   Clear
5:55 PM 3.0 °F - 0.7 °F 90% 29.84 in 10.0 mi Calm Calm - N/A   Clear
6:15 PM 1.4 °F - -1.7 °F 87% 29.84 in 10.0 mi Calm Calm - N/A   Clear
6:35 PM 0.9 °F - -2.2 °F 87% 29.84 in 10.0 mi Calm Calm - N/A   Clear
6:55 PM 0.5 °F - -2.2 °F 88% 29.83 in 10.0 mi Calm Calm - N/A   Clear
7:10 PM -1.1 °F - -4.4 °F 86% 29.83 in 10.0 mi Calm Calm - N/A   Clear
7:35 PM -1.1 °F - -4.2 °F 87% 29.82 in 10.0 mi Calm Calm - N/A   Clear
7:55 PM -5.8 °F -16.7 °F -9.6 °F 84% 29.83 in 10.0 mi WSW 4.6 mph - N/A   Clear
8:15 PM -2.6 °F -10.8 °F -5.4 °F 87% 29.82 in 10.0 mi SW 3.5 mph - N/A   Clear
8:35 PM -2.2 °F -12.5 °F -5.1 °F 88% 29.80 in 10.0 mi SW 4.6 mph - N/A   Clear
8:55 PM 7.3 °F -2.8 °F 5.2 °F 91% 29.79 in 10.0 mi SW 5.8 mph - N/A   Clear
9:15 PM 9.5 °F -0.3 °F 7.2 °F 90% 29.78 in 10.0 mi SW 5.8 mph - N/A   Clear
9:35 PM 9.5 °F -0.3 °F 7.2 °F 90% 29.76 in 10.0 mi SW 5.8 mph - N/A   Clear
9:55 PM 9.5 °F -0.3 °F 7.2 °F 90% 29.76 in 10.0 mi SW 5.8 mph - N/A   Clear
10:15 PM 9.5 °F -0.3 °F 7.2 °F 90% 29.74 in 10.0 mi SW 5.8 mph - N/A   Clear
10:35 PM 10.6 °F -0.2 °F 7.9 °F 89% 29.73 in 10.0 mi SW 6.9 mph - N/A   Clear
10:55 PM 12.0 °F 0.5 °F 8.6 °F 86% 29.72 in 10.0 mi SW 8.1 mph - N/A   Clear
11:15 PM 12.2 °F 0.7 °F 8.2 °F 84% 29.71 in 10.0 mi WSW 8.1 mph - N/A   Clear
11:35 PM 12.6 °F 0.2 °F 7.9 °F 82% 29.68 in 10.0 mi WSW 9.2 mph - N/A   Mostly Cloudy
11:55 PM 13.5 °F 0.5 °F 7.9 °F 78% 29.67 in 10.0 mi SW 10.4 mph 18.4 mph N/A   Overcast